CW8014 Weather Reports


time (UTC)temp
C
wind
direction
speed
KPH
gust
KPH
rain 1hr
cm
rain 24hr
cm
rain mn
cm
humidity
%
barometer
mb
20260905014406 13 229 4.8 12.9 0.00 1.02 0.00 89 1013.9
20260905011406 13 228 4.8 12.9 0.00 1.02 0.00 90 1013.8
20260905005406 13 244 3.2 11.3 0.00 1.04 0.00 91 1013.8
20260905002406 13 244 4.8 14.5 0.00 1.04 0.00 92 1013.6
20260905001406 13 259 3.2 11.3 0.00 1.04 0.00 92 1013.6
20260905000406 13 301 3.2 11.3 0.00 1.04 0.00 92 1013.6
20260904235406 13 209 3.2 8.0 0.00 1.04 0.00 91 1013.5
20260904234407 13 246 3.2 9.7 0.00 1.04 0.00 91 1013.5
20260904233406 13 247 3.2 8.0 0.00 1.04 0.00 91 1013.5
20260904232408 14 296 3.2 8.0 0.00 1.04 0.00 91 1013.3
20260904231406 14 274 3.2 9.7 0.00 1.04 0.00 90 1013.3
20260904230407 14 286 4.8 11.3 0.00 1.04 0.00 91 1013.2
20260904225408 14 266 4.8 14.5 0.00 1.04 0.00 90 1013.2
20260904224407 15 272 4.8 12.9 0.00 1.04 0.00 90 1013.1
20260904223407 15 253 8.0 19.3 0.00 1.04 0.00 90 1013.1
20260904222408 15 236 6.4 17.7 0.00 1.04 0.00 90 1013.0
20260904221407 14 256 4.8 11.3 0.00 1.04 0.00 90 1012.9
20260904220407 14 221 3.2 6.4 0.00 1.04 0.00 90 1012.8
20260904215407 14 257 3.2 6.4 0.00 1.04 1.04 90 1012.8
20260904181409 16 305 6.4 16.1 0.00 1.04 1.04 85 1010.8
20260904180409 16 276 8.0 16.1 0.00 1.04 1.04 85 1010.7
20260904175409 16 208 4.8 14.5 0.00 1.04 1.04 84 1010.6
20260904174409 17 267 4.8 12.9 0.00 1.04 1.04 83 1010.5
20260904173409 17 244 8.0 14.5 0.00 1.04 1.04 83 1010.5
20260904171409 17 277 8.0 17.7 0.00 1.04 1.04 83 1010.3
20260904165409 17 5 14.5 29.0 0.00 1.04 1.04 82 1010.1
20260904164409 17 302 9.7 24.1 0.00 1.04 1.04 85 1009.9
20260904163409 17 271 9.7 20.9 0.00 1.04 1.04 86 1009.7
20260904160409 17 280 9.7 24.1 0.00 1.04 1.04 87 1009.5
20260904155409 17 279 12.9 27.4 0.00 1.04 1.04 87 1009.3
20260904154409 17 198 9.7 20.9 0.00 1.04 1.04 89 1009.3
20260904152409 17 300 11.3 24.1 0.00 1.04 1.04 92 1009.2
20260904151409 18 257 11.3 27.4 0.00 1.04 1.04 92 1008.9
20260904150409 18 282 11.3 24.1 0.00 1.04 1.04 93 1008.9
20260904145409 17 290 11.3 24.1 0.00 1.04 1.04 93 1008.6
20260904144409 17 253 11.3 22.5 0.00 1.04 1.04 94 1008.3
20260904143411 17 346 9.7 24.1 0.00 1.04 1.04 95 1008.4
20260904142502 17 284 12.9 29.0 0.00 1.04 1.04 94 1008.5
20260904142402 17 271 9.7 29.0 0.00 1.04 1.04 95 1008.5
20260904141402 17 315 16.1 30.6 0.00 1.04 1.04 95 1008.3
20260904140402 17 293 12.9 30.6 0.00 1.04 1.04 95 1008.0
20260904135403 17 266 11.3 25.7 0.03 1.04 1.04 95 1007.8
20260904132402 17 277 8.0 25.7 0.08 1.04 1.04 95 1007.1
20260904131402 17 217 11.3 20.9 0.13 1.04 1.04 95 1008.0
20260904130402 17 175 14.5 29.0 0.15 1.04 1.04 95 1008.0
20260904125402 17 161 8.0 20.9 0.15 1.02 1.02 95 1007.4
20260904124402 17 212 11.3 19.3 0.15 0.99 0.99 95 1007.6
20260904123404 17 242 12.9 24.1 0.13 0.99 0.99 94 1007.8
20260904122402 17 208 6.4 17.7 0.13 0.97 0.97 94 1006.8
20260904121403 17 217 6.4 14.5 0.08 0.91 0.91 94 1007.0
20260904120402 18 205 11.3 30.6 0.08 0.89 0.89 94 1007.2
20260904115403 18 227 6.4 16.1 0.05 0.89 0.89 94 1006.9
20260904113403 19 263 12.9 35.4 0.05 0.86 0.86 95 1007.3
20260904112402 19 223 11.3 25.7 0.05 0.84 0.84 96 1007.2
20260904111404 20 288 11.3 29.0 0.46 0.84 0.84 96 1007.2
20260904110402 20 253 11.3 25.7 0.51 0.81 0.81 96 1007.1
20260904105403 20 267 8.0 22.5 0.51 0.81 0.81 96 1006.8
20260904104402 20 258 9.7 22.5 0.53 0.81 0.81 96 1007.1
20260904102402 19 229 9.7 22.5 0.51 0.79 0.79 95 1007.0
20260904101402 20 308 11.3 30.6 0.10 0.38 0.38 95 1006.7
20260904100402 20 70 9.7 25.7 0.05 0.33 0.33 95 1006.3
20260904095403 20 273 11.3 30.6 0.05 0.33 0.30 94 1006.3
20260904094402 20 240 12.9 24.1 0.03 0.30 0.28 94 1006.3
20260904093402 20 325 9.7 27.4 0.03 0.30 0.28 93 1006.3
20260904092402 20 227 12.9 27.4 0.03 0.30 0.28 92 1006.3
20260904091402 20 195 12.9 33.8 0.03 0.30 0.28 91 1006.3
20260904090402 20 251 11.3 32.2 0.00 0.28 0.25 91 1006.3
20260904085403 20 251 9.7 29.0 0.03 0.28 0.25 92 1006.5
20260904083402 19 257 11.3 27.4 0.03 0.28 0.25 93 1006.6
20260904082407 19 261 11.3 27.4 0.03 0.28 0.25 93 1006.8
20260904081407 19 188 11.3 27.4 0.03 0.28 0.25 93 1006.9
20260904074407 19 209 9.7 22.5 0.00 0.25 0.23 92 1007.1
20260904073407 19 172 9.7 24.1 0.00 0.25 0.23 92 1007.3
20260904072407 19 188 8.0 24.1 0.00 0.25 0.23 93 1007.4
20260904071407 19 131 9.7 30.6 0.00 0.25 0.23 93 1007.6
20260904070407 19 144 9.7 25.7 0.03 0.25 0.23 94 1007.6
20260904065409 19 181 11.3 27.4 0.03 0.25 0.23 95 1007.9
20260904064407 18 290 9.7 32.2 0.05 0.25 0.23 95 1008.0
20260904062407 18 184 9.7 19.3 0.05 0.25 0.23 95 1008.2
20260904061409 18 202 8.0 22.5 0.08 0.25 0.23 95 1008.4
20260904060407 18 142 6.4 16.1 0.05 0.23 0.23 95 1008.5
20260904054407 18 191 8.0 17.7 0.05 0.23 0.20 95 1008.9
20260904053407 18 220 8.0 16.1 0.08 0.23 0.20 95 1008.9
20260904052409 18 167 9.7 22.5 0.15 0.20 0.18 95 1009.0
20260904051407 18 168 8.0 20.9 0.13 0.18 0.15 95 1009.0
20260904045408 18 252 4.8 14.5 0.13 0.18 0.15 95 1009.0
20260904044407 18 222 4.8 12.9 0.13 0.18 0.15 94 1009.2
20260904042407 19 178 6.4 16.1 0.00 0.05 0.05 93 1009.6
20260904040407 19 162 8.0 22.5 0.00 0.05 0.05 92 1009.9
20260904034407 18 178 11.3 19.3 0.00 0.05 0.05 93 1010.2
20260904033407 18 156 6.4 24.1 0.00 0.05 0.05 93 1010.4
20260904032409 18 229 6.4 19.3 0.00 0.05 0.05 94 1010.2
20260904031407 18 150 8.0 25.7 0.00 0.05 0.05 94 1010.5
20260904024407 18 175 6.4 14.5 0.03 0.05 0.05 94 1010.9
20260904023407 18 171 4.8 12.9 0.05 0.05 0.05 94 1011.0
20260904022408 18 142 9.7 22.5 0.05 0.05 0.05 94 1010.9
20260904021407 18 193 6.4 16.1 0.05 0.05 0.05 94 1011.2
20260904020407 18 153 8.0 14.5 0.03 0.05 0.03 94 1011.3
20260904015408 18 180 4.8 12.9 0.03 0.05 0.03 93 1011.5